Wind_Speed
123 123 117 121 123 124 127 121 118 115 115 114 107 97 94 94 91 92 92 91 90 87 83 80 72 71 70 69 67 65 62 63 63 65 70 78 79 79 78 78 78 75 63 56
126 122 121 122 124 124 127 125 122 121 117 115 114 105 102 97 93 90 86 85 81 78 73 72 73 74 73 71 68 62 62 65 68 72 76 80 78 77 76 77 70 62 57 52
125 121 123 125 125 124 123 123 127 121 120 118 114 106 101 99 95 91 87 87 86 79 77 77 78 75 73 69 65 69 72 73 71 75 78 77 71 72 73 65 61 57 50 44
127 121 120 123 124 124 122 121 119 121 120 116 117 108 103 99 95 94 93 88 82 82 84 81 77 73 70 69 70 74 72 70 71 75 76 68 70 70 60 58 55 49 39 37
118 120 127 125 119 121 119 120 118 116 113 111 105 102 87 91 86 85 86 85 84 83 78 76 72 70 70 71 74 72 68 69 70 66 66 68 65 58 52 52 46 37 35 40
106 111 124 127 123 118 115 117 116 115 110 103 95 96 75 82 82 84 80 78 79 77 72 70 70 70 72 72 68 66 63 62 59 61 63 60 50 50 49 42 33 35 39 40
95 105 113 118 122 121 116 111 110 108 103 90 92 88 69 77 78 76 75 73 70 65 64 65 65 63 62 60 58 57 55 55 59 56 52 46 50 47 37 31 35 37 37 38
81 98 100 103 110 116 117 115 108 104 96 89 90 76 70 73 73 71 73 68 62 57 57 57 55 54 53 56 54 52 52 53 51 49 46 46 41 30 30 33 33 36 37 32
70 82 93 92 98 107 111 110 108 108 98 90 78 69 68 67 70 74 69 63 55 52 53 52 51 49 50 48 48 47 44 43 43 40 36 32 27 29 33 31 33 36 29 26
61 65 78 87 90 98 102 105 107 104 98 89 77 68 63 62 65 62 57 53 50 51 46 46 46 44 41 41 39 36 39 39 31 26 29 27 27 33 31 31 35 29 26 20
50 57 67 77 87 90 89 95 98 98 95 90 81 70 64 59 57 51 48 46 44 41 38 36 37 34 31 30 32 35 34 25 16 24 23 25 29 32 31 34 29 24 20 17
43 50 58 65 75 78 77 84 88 90 89 87 83 74 65 58 54 48 42 39 36 30 32 33 30 27 27 29 32 29 23 19 19 20 23 26 30 28 32 30 25 23 15 17
35 41 51 55 63 68 71 75 78 81 84 79 80 72 67 62 59 48 39 34 30 28 30 28 26 27 25 27 30 27 21 24 20 22 22 28 26 29 28 24 23 16 14 19
26 37 45 50 52 61 67 67 68 72 73 74 72 73 68 66 61 50 41 36 30 28 29 27 26 25 24 29 30 24 21 21 20 20 25 27 25 26 23 21 18 12 14 21
23 31 40 46 48 51 58 62 61 60 68 68 71 73 73 70 65 53 45 38 33 34 32 28 27 23 25 29 27 24 20 17 19 21 25 22 24 23 20 19 13 7 13 18
20 26 33 38 38 43 51 59 56 55 61 66 64 72 77 74 70 58 50 42 39 38 33 31 25 23 20 20 23 21 16 17 19 24 21 22 22 19 18 18 9 7 13 16
17 21 25 30 37 41 48 55 59 59 59 63 64 74 79 75 72 64 54 46 44 38 36 31 28 22 18 18 19 18 19 18 20 23 21 22 22 18 14 10 7 7 9 12
14 15 17 25 32 38 45 54 62 60 62 63 70 81 80 77 73 65 57 51 47 41 36 34 29 22 21 19 17 16 15 15 18 20 20 21 18 12 5 5 4 6 9 11
10 12 15 23 30 34 39 47 59 65 63 61 66 82 80 77 71 65 59 56 50 44 40 32 26 25 22 22 18 15 13 14 18 17 19 19 15 8 2 2 3 5 7 9
12 16 20 24 27 32 35 48 64 71 69 69 72 78 81 77 69 63 59 57 51 45 43 35 26 25 24 21 21 17 10 14 15 17 19 18 13 7 2 4 3 2 3 5
13 18 21 24 28 31 38 47 63 70 70 71 74 74 76 65 70 62 59 57 51 48 43 34 29 25 21 20 18 15 9 13 13 16 18 15 11 6 3 5 5 3 3 3
18 22 22 25 28 32 40 50 63 70 73 73 71 59 62 70 68 61 59 57 54 48 38 32 27 24 17 19 19 13 9 8 11 15 15 12 9 5 3 6 5 2 1 2
21 24 26 27 31 36 44 56 65 66 67 67 54 60 67 68 62 60 57 55 49 43 42 28 23 18 16 19 21 15 7 5 8 13 11 9 8 2 5 6 6 4 2 4
17 21 25 28 32 36 44 53 61 64 58 54 56 62 68 67 63 56 53 52 39 39 37 26 21 16 17 21 16 11 5 2 6 12 9 7 7 1 6 8 6 2 2 3
18 22 27 31 37 43 52 58 58 55 55 56 57 65 69 67 62 58 54 49 46 40 29 26 24 20 22 21 13 9 5 1 4 10 9 4 4 1 6 7 5 2 3 4
21 24 29 39 47 57 68 68 63 60 62 62 62 66 71 70 65 63 57 52 44 35 30 29 26 26 30 22 14 7 6 2 3 7 8 4 2 1 6 8 6 6 3 6
Wind_Direction
243 242 244 244 243 241 242 243 244 245 245 249 254 251 254 257 258 259 262 264 267 268 270 272 273 277 279 283 287 286 288 291 293 291 294 301 301 300 300 300 302 305 307 303
243 244 243 243 244 243 242 243 245 245 248 250 251 251 254 257 258 261 263 266 268 269 269 268 272 275 281 284 284 283 289 294 294 292 296 299 299 299 298 300 304 305 303 298
245 244 242 242 243 244 244 243 244 245 247 250 251 252 255 258 257 258 261 266 267 267 268 270 272 275 283 284 281 284 289 293 292 292 294 296 295 296 299 303 303 301 297 298
247 247 247 245 243 243 244 245 245 245 247 249 250 250 255 257 257 258 261 262 261 266 268 270 274 282 284 283 285 287 288 288 290 291 293 292 294 299 301 302 296 298 300 295
246 244 245 246 244 243 243 243 244 245 246 247 250 253 251 254 256 257 255 257 262 265 269 272 276 278 278 278 281 283 284 287 288 287 289 293 298 301 298 294 296 297 292 295
243 241 240 242 241 241 242 244 244 245 246 247 248 251 246 250 251 249 256 257 260 264 268 269 270 272 273 276 278 282 284 284 286 287 290 295 299 296 289 291 289 293 296 298
241 240 238 238 238 240 239 240 244 245 246 248 248 250 247 245 247 254 255 258 260 263 264 265 267 270 271 274 276 278 282 285 287 289 291 297 295 289 293 296 297 297 297 302
238 238 239 237 237 237 237 238 239 243 244 243 243 245 248 246 245 246 251 252 255 256 260 261 264 266 270 272 276 278 280 282 285 288 295 294 292 294 299 299 297 299 302 303
239 236 236 238 236 235 236 236 237 237 239 240 241 242 244 245 246 243 245 252 254 255 256 260 263 266 268 271 271 274 276 279 282 289 289 286 287 299 302 300 302 303 304 304
240 235 235 234 233 232 232 232 234 235 236 237 237 238 241 242 244 244 245 247 251 253 256 255 258 258 260 263 268 271 274 279 284 286 287 289 297 307 305 307 306 304 304 299
239 232 234 232 232 232 233 233 233 233 234 234 233 231 232 231 235 241 242 243 244 247 246 247 248 251 250 254 259 266 270 274 278 285 294 298 304 309 309 307 307 304 297 308
238 232 231 231 229 230 231 231 232 232 232 231 230 227 225 226 233 240 238 239 238 235 235 233 235 235 237 250 258 264 266 257 279 302 302 311 308 307 308 307 305 299 296 311
238 232 231 230 228 226 225 227 228 229 229 227 227 225 223 223 230 233 228 224 224 222 225 225 217 224 239 250 262 263 248 260 278 303 308 311 306 307 307 305 301 288 301 310
232 230 226 226 224 224 220 221 224 224 223 223 218 217 217 215 223 225 215 220 216 216 214 207 217 231 242 252 261 251 252 265 285 302 311 306 303 306 306 302 295 286 306 310
234 227 227 226 223 218 216 216 218 216 218 217 212 207 211 210 218 219 212 217 212 211 209 215 218 232 233 244 253 251 250 261 288 311 308 303 305 308 301 297 286 285 307 316
227 226 223 226 221 216 214 209 206 208 213 213 204 198 209 207 212 216 213 210 210 209 213 215 223 214 230 247 257 255 263 271 293 314 309 310 312 312 301 293 267 286 315 319
221 222 216 212 215 210 209 206 198 198 204 205 196 190 202 201 207 212 210 203 207 207 212 218 219 219 232 244 258 250 262 278 301 308 313 320 325 318 303 270 244 292 313 322
219 214 204 200 204 207 204 197 193 189 198 195 190 187 195 197 204 209 207 204 203 205 209 217 219 223 231 246 251 251 274 291 304 311 323 328 324 325 303 219 257 309 294 315
197 196 183 186 195 198 198 194 189 183 190 188 186 188 191 195 201 205 205 206 205 207 208 208 208 222 230 248 249 242 289 308 310 316 328 329 329 326 327 199 285 290 296 315
165 164 171 177 183 186 191 187 184 183 183 181 185 192 188 190 198 200 199 202 201 198 204 206 205 223 225 241 245 251 272 321 316 324 328 331 320 324 206 210 233 295 308 328
155 156 161 170 170 175 178 181 183 183 179 179 183 191 189 190 196 194 195 197 197 199 202 200 210 216 214 235 230 246 287 313 317 330 335 327 314 321 242 220 213 254 297 302
153 153 156 162 162 167 172 172 179 183 179 179 183 184 186 188 190 189 190 193 195 196 196 192 198 202 209 225 227 252 276 309 326 341 344 329 307 317 201 193 198 222 307 269
153 156 156 160 160 164 167 173 175 179 178 180 178 178 179 178 181 184 186 190 190 188 184 187 190 192 210 229 230 252 270 300 340 356 353 328 320 328 179 183 211 261 316 258
152 152 155 156 156 159 161 166 169 177 182 180 173 172 172 174 178 175 178 177 177 182 179 184 195 212 214 218 224 218 235 306 349 5 2 330 332 5 159 184 207 274 357 164
146 153 153 155 149 151 152 159 168 173 176 167 168 167 169 173 173 172 169 170 168 178 182 204 206 222 214 204 201 208 194 238 2 4 358 359 320 8 144 185 217 209 63 138
148 153 156 151 150 153 156 160 166 170 166 165 163 165 169 171 167 160 160 175 180 180 196 203 214 210 200 198 185 195 179 165 2 3 355 23 295 268 136 158 183 154 115 117
Height
10557 10564 10589 10594 10596 10608 10620 10629 10642 10651 10661 10662 10681 10709 10714 10718 10725 10737 10743 10747 10753 10758 10758 10758 10757 10761 10761 10763 10762 10759 10757 10755 10753 10748 10741 10735 10729 10721 10714 10707 10702 10697 10693 10689
10525 10548 10559 10563 10567 10581 10596 10607 10623 10631 10635 10649 10662 10685 10701 10708 10719 10725 10730 10734 10738 10742 10742 10742 10744 10747 10749 10752 10750 10750 10747 10745 10741 10735 10730 10724 10716 10708 10703 10698 10693 10687 10682 10677
10494 10520 10528 10535 10543 10554 10567 10584 10599 10611 10617 10632 10644 10667 10683 10694 10707 10712 10718 10722 10720 10722 10727 10730 10733 10736 10740 10740 10738 10736 10735 10732 10729 10722 10717 10712 10705 10699 10694 10689 10682 10677 10672 10665
10470 10494 10501 10505 10519 10530 10544 10558 10574 10588 10600 10617 10622 10654 10673 10680 10692 10698 10703 10700 10703 10711 10714 10717 10723 10727 10724 10725 10725 10722 10722 10719 10715 10709 10704 10699 10695 10691 10685 10679 10671 10667 10664 10658
10446 10466 10466 10472 10496 10503 10525 10533 10548 10564 10581 10595 10618 10630 10676 10663 10680 10679 10673 10684 10695 10697 10704 10708 10710 10711 10712 10713 10711 10710 10709 10706 10703 10698 10691 10688 10685 10682 10676 10670 10663 10659 10656 10653
10412 10426 10421 10440 10464 10480 10501 10511 10526 10541 10558 10580 10611 10613 10665 10646 10656 10650 10666 10675 10679 10686 10694 10696 10696 10698 10699 10700 10698 10697 10696 10693 10690 10686 10682 10680 10677 10672 10667 10664 10659 10654 10649 10644
10383 10388 10397 10416 10433 10455 10476 10494 10509 10523 10543 10582 10586 10599 10647 10631 10639 10647 10652 10662 10669 10677 10681 10683 10684 10687 10687 10686 10687 10686 10684 10682 10677 10675 10674 10673 10668 10663 10659 10656 10652 10648 10644 10639
10359 10364 10378 10397 10415 10433 10450 10470 10492 10507 10532 10560 10565 10598 10623 10618 10622 10635 10633 10646 10656 10664 10668 10670 10674 10675 10676 10675 10676 10676 10675 10671 10669 10668 10668 10664 10660 10656 10653 10650 10646 10641 10637 10631
10331 10341 10358 10371 10391 10407 10427 10451 10476 10485 10506 10536 10562 10591 10599 10597 10604 10608 10624 10637 10647 10653 10657 10662 10663 10664 10664 10665 10665 10667 10665 10663 10663 10663 10660 10656 10653 10650 10647 10643 10639 10635 10629 10625
10316 10330 10336 10351 10369 10385 10405 10428 10443 10467 10497 10525 10553 10574 10586 10579 10580 10599 10617 10628 10637 10641 10647 10649 10651 10653 10655 10656 10658 10657 10657 10657 10656 10655 10653 10649 10646 10643 10638 10635 10631 10627 10623 10621
10306 10315 10321 10336 10354 10369 10391 10411 10430 10454 10482 10511 10538 10557 10567 10561 10567 10594 10608 10616 10623 10631 10634 10638 10641 10646 10647 10649 10651 10651 10650 10651 10650 10649 10646 10643 10639 10635 10632 10629 10624 10620 10618 10616
10295 10302 10309 10321 10339 10360 10381 10398 10416 10442 10469 10493 10518 10540 10552 10554 10562 10587 10597 10605 10613 10621 10626 10629 10634 10638 10641 10644 10645 10645 10645 10646 10645 10643 10640 10637 10633 10630 10627 10622 10618 10616 10614 10612
10287 10294 10300 10312 10327 10346 10366 10381 10402 10427 10449 10478 10504 10532 10541 10542 10553 10576 10589 10596 10605 10612 10618 10624 10628 10632 10636 10637 10637 10639 10640 10641 10641 10638 10635 10632 10629 10625 10622 10617 10614 10611 10610 10609
10280 10285 10291 10302 10317 10332 10352 10369 10389 10413 10438 10461 10495 10510 10527 10525 10543 10568 10578 10589 10598 10605 10611 10617 10623 10628 10631 10632 10633 10634 10636 10637 10636 10633 10631 10628 10624 10621 10616 10612 10609 10607 10608 10606
10274 10278 10286 10294 10307 10324 10341 10358 10379 10405 10424 10446 10472 10495 10505 10516 10531 10558 10570 10581 10590 10597 10604 10612 10617 10623 10626 10627 10629 10630 10632 10632 10631 10628 10626 10622 10618 10614 10610 10607 10605 10606 10606 10603
10269 10273 10281 10291 10305 10319 10332 10347 10371 10394 10414 10433 10460 10483 10486 10506 10517 10548 10563 10574 10583 10590 10599 10605 10612 10618 10621 10622 10625 10626 10628 10628 10626 10623 10620 10616 10611 10607 10604 10602 10601 10603 10602 10600
10268 10272 10280 10288 10297 10307 10319 10338 10357 10379 10399 10419 10447 10467 10468 10497 10505 10538 10555 10567 10576 10586 10594 10600 10606 10612 10617 10618 10621 10623 10625 10623 10621 10619 10615 10609 10604 10601 10598 10597 10598 10600 10600 10598
10266 10271 10279 10287 10294 10302 10314 10327 10347 10373 10386 10405 10428 10445 10457 10485 10496 10529 10547 10560 10570 10580 10588 10593 10602 10609 10612 10614 10617 10620 10621 10619 10617 10614 10609 10604 10600 10597 10595 10596 10596 10598 10598 10597
10267 10271 10279 10285 10292 10302 10313 10329 10347 10362 10380 10405 10427 10433 10452 10476 10497 10520 10538 10551 10564 10574 10582 10591 10598 10604 10607 10611 10614 10616 10616 10614 10612 10608 10604 10600 10596 10595 10594 10595 10595 10597 10597 10596
10268 10271 10277 10283 10291 10299 10312 10322 10337 10352 10370 10392 10413 10420 10444 10471 10497 10513 10530 10544 10559 10570 10578 10586 10593 10600 10602 10607 10610 10612 10611 10609 10606 10604 10600 10595 10594 10593 10594 10594 10595 10596 10596 10596
10270 10273 10278 10284 10290 10299 10308 10322 10339 10354 10370 10387 10404 10418 10446 10477 10488 10507 10523 10540 10554 10563 10573 10582 10588 10595 10598 10603 10607 10608 10607 10605 10603 10600 10596 10592 10592 10591 10591 10593 10595 10596 10597 10596
10273 10277 10282 10288 10294 10301 10310 10322 10340 10352 10367 10384 10401 10430 10450 10467 10486 10503 10519 10535 10547 10558 10569 10577 10584 10590 10594 10599 10603 10605 10604 10602 10600 10597 10592 10591 10590 10589 10590 10592 10594 10596 10597 10597
10278 10280 10284 10291 10297 10303 10311 10324 10339 10361 10378 10391 10413 10428 10446 10466 10485 10499 10516 10531 10545 10555 10565 10573 10579 10585 10590 10595 10599 10601 10600 10599 10598 10594 10591 10590 10588 10588 10588 10590 10594 10596 10595 10595
10286 10290 10293 10298 10303 10310 10321 10336 10353 10367 10381 10397 10414 10431 10448 10466 10481 10498 10514 10530 10543 10552 10561 10569 10576 10582 10586 10592 10596 10597 10597 10596 10596 10593 10591 10589 10588 10587 10588 10590 10593 10595 10594 10594
10293 10296 10298 10303 10309 10317 10328 10345 10362 10375 10386 10402 10417 10433 10448 10464 10481 10497 10512 10526 10538 10550 10557 10565 10571 10579 10585 10589 10591 10593 10593 10594 10594 10592 10590 10588 10588 10587 10587 10589 10592 10593 10593 10594
10298 10301 10305 10308 10313 10321 10328 10345 10359 10376 10387 10404 10419 10436 10449 10463 10480 10495 10509 10522 10534 10546 10556 10561 10569 10575 10581 10585 10586 10589 10589 10591 10592 10591 10590 10588 10588 10587 10586 10588 10590 10592 10594 10594